Private Wetterstation Wechselburg
Wetterdaten: Sonntag, 03.04.2011
Datum Zeit Temp. +2m Bodentemp. Temp.+5cm Temp. Wind Windchill X Diff Temp. Feuchte +2m Feuchte +5cm Sonnenschein Luftdruck Regen Wind Richtung Richtung Sonnenschein UV Taupunkt Windchill Windben
03.04.2011 00:00 14,3 C 14,6 C 13,2 C 13,9 C 13,2 C 0,0 C 72 % 75 % 0 % 1013,9 hPa 0,0 l/m 0,8 km/h (0 Bft) N-NO 22 0 min 0,0 UV-I 9,3 C 13,2 C 0,0 km/h (0 Bft)
03.04.2011 00:08 14,1 C 14,5 C 13,2 C 13,7 C 12,9 C 0,0 C 71 % 75 % 0 % 1013,9 hPa 0,0 l/m 0,3 km/h (0 Bft) N 0 0 min 0,0 UV-I 8,9 C 12,9 C 0,0 km/h (0 Bft)
03.04.2011 00:15 14,1 C 14,5 C 13,1 C 13,6 C 12,7 C 0,0 C 72 % 76 % 0 % 1013,2 hPa 0,0 l/m 0,3 km/h (0 Bft) S 180 0 min 0,0 UV-I 9,1 C 12,7 C 0,0 km/h (0 Bft)
03.04.2011 00:20 14,1 C 14,5 C 13,1 C 13,7 C 12,8 C 0,0 C 72 % 76 % 0 % 1013,2 hPa 0,0 l/m 0,5 km/h (0 Bft) O-NO 67 0 min 0,0 UV-I 9,1 C 12,8 C 0,0 km/h (0 Bft)
03.04.2011 00:25 13,9 C 14,5 C 13,1 C 13,5 C 12,7 C 0,0 C 72 % 76 % 0 % 1013,2 hPa 0,0 l/m 0,6 km/h (0 Bft) O 90 0 min 0,0 UV-I 8,9 C 12,7 C 0,0 km/h (0 Bft)
03.04.2011 00:30 13,8 C 14,5 C 12,9 C 13,4 C 12,6 C 0,0 C 72 % 75 % 0 % 1013,2 hPa 0,0 l/m 0,3 km/h (0 Bft) O-NO 67 0 min 0,0 UV-I 8,8 C 12,6 C 0,0 km/h (0 Bft)
03.04.2011 00:35 13,8 C 14,5 C 12,8 C 13,3 C 12,4 C 0,0 C 72 % 75 % 0 % 1013,2 hPa 0,0 l/m 0,2 km/h (0 Bft) O-NO 67 0 min 0,0 UV-I 8,8 C 12,4 C 0,0 km/h (0 Bft)
03.04.2011 00:40 13,6 C 14,5 C 12,7 C 13,2 C 12,3 C 0,0 C 73 % 76 % 0 % 1013,2 hPa 0,0 l/m 0,2 km/h (0 Bft) O-NO 67 0 min 0,0 UV-I 8,9 C 12,3 C 0,0 km/h (0 Bft)
03.04.2011 00:45 13,6 C 14,4 C 12,5 C 13,1 C 12,2 C 0,0 C 73 % 77 % 0 % 1013,2 hPa 0,0 l/m 0,2 km/h (0 Bft) O-NO 67 0 min 0,0 UV-I 8,9 C 12,2 C 0,0 km/h (0 Bft)
03.04.2011 00:50 13,5 C 14,4 C 12,5 C 13,0 C 12,1 C 0,0 C 73 % 77 % 0 % 1013,2 hPa 0,0 l/m 0,2 km/h (0 Bft) N-NO 22 0 min 0,0 UV-I 8,8 C 12,1 C 0,0 km/h (0 Bft)
03.04.2011 00:55 13,3 C 14,4 C 12,3 C 12,8 C 11,8 C 0,0 C 73 % 77 % 0 % 1013,1 hPa 0,0 l/m 0,0 km/h (0 Bft) NO 45 0 min 0,0 UV-I 8,6 C 11,8 C 0,0 km/h (0 Bft)
03.04.2011 01:00 13,3 C 14,5 C 12,0 C 12,7 C 11,6 C 0,0 C 74 % 77 % 0 % 1013,1 hPa 0,0 l/m 0,0 km/h (0 Bft) NO 45 0 min 0,0 UV-I 8,8 C 11,6 C 0,0 km/h (0 Bft)
03.04.2011 01:09 13,0 C 14,5 C 11,6 C 12,4 C 11,2 C 0,0 C 75 % 78 % 0 % 1013,1 hPa 0,0 l/m 0,0 km/h (0 Bft) N 0 0 min 0,0 UV-I 8,7 C 11,2 C 0,0 km/h (0 Bft)
03.04.2011 01:15 12,9 C 14,5 C 11,6 C 12,2 C 10,8 C 0,0 C 75 % 79 % 0 % 1013,1 hPa 0,0 l/m 0,0 km/h (0 Bft) W-NW 292 0 min 0,0 UV-I 8,6 C 10,8 C 0,0 km/h (0 Bft)
03.04.2011 01:20 12,9 C 14,5 C 11,5 C 12,1 C 10,6 C 0,0 C 75 % 79 % 0 % 1013,1 hPa 0,0 l/m 0,0 km/h (0 Bft) W-SW 247 0 min 0,0 UV-I 8,6 C 10,6 C 0,0 km/h (0 Bft)
03.04.2011 01:25 12,8 C 14,5 C 11,5 C 12,0 C 10,5 C 0,0 C 75 % 80 % 0 % 1013,1 hPa 0,0 l/m 0,0 km/h (0 Bft) SW 225 0 min 0,0 UV-I 8,5 C 10,5 C 0,0 km/h (0 Bft)
03.04.2011 01:30 12,7 C 14,5 C 11,4 C 11,9 C 10,4 C 0,0 C 75 % 80 % 0 % 1013,1 hPa 0,0 l/m 0,0 km/h (0 Bft) SW 225 0 min 0,0 UV-I 8,4 C 10,4 C 1,6 km/h (1 Bft)
03.04.2011 01:35 12,7 C 14,5 C 11,3 C 11,9 C 10,3 C 0,0 C 76 % 80 % 0 % 1012,7 hPa 0,0 l/m 0,2 km/h (0 Bft) W-SW 247 0 min 0,0 UV-I 8,6 C 10,3 C 0,0 km/h (0 Bft)
03.04.2011 01:40 12,7 C 14,5 C 11,2 C 11,9 C 10,3 C 0,0 C 76 % 80 % 0 % 1012,7 hPa 0,0 l/m 0,2 km/h (0 Bft) S 180 0 min 0,0 UV-I 8,6 C 10,3 C 0,0 km/h (0 Bft)
03.04.2011 01:45 12,5 C 14,5 C 11,1 C 11,7 C 10,1 C 0,0 C 76 % 80 % 0 % 1012,7 hPa 0,0 l/m 0,0 km/h (0 Bft) W-SW 247 0 min 0,0 UV-I 8,4 C 10,1 C 0,0 km/h (0 Bft)
03.04.2011 01:50 12,4 C 14,5 C 11,0 C 11,6 C 10,0 C 0,0 C 77 % 81 % 0 % 1012,7 hPa 0,0 l/m 0,0 km/h (0 Bft) W 270 0 min 0,0 UV-I 8,5 C 10,0 C 0,0 km/h (0 Bft)
03.04.2011 01:55 12,4 C 14,5 C 11,1 C 11,6 C 10,0 C 0,0 C 77 % 81 % 0 % 1012,7 hPa 0,0 l/m 0,2 km/h (0 Bft) NW 315 0 min 0,0 UV-I 8,5 C 10,0 C 0,0 km/h (0 Bft)
03.04.2011 02:00 12,3 C 14,5 C 11,1 C 11,6 C 10,1 C 0,0 C 77 % 81 % 0 % 1012,7 hPa 0,0 l/m 0,2 km/h (0 Bft) W 270 0 min 0,0 UV-I 8,4 C 10,1 C 0,0 km/h (0 Bft)
03.04.2011 02:09 12,3 C 14,4 C 10,9 C 11,5 C 10,0 C 0,0 C 77 % 82 % 0 % 1012,7 hPa 0,0 l/m 0,0 km/h (0 Bft) N 0 0 min 0,0 UV-I 8,4 C 10,0 C 0,0 km/h (0 Bft)
03.04.2011 02:15 12,2 C 14,4 C 10,7 C 11,5 C 10,0 C 0,0 C 77 % 82 % 0 % 1012,6 hPa 0,0 l/m 0,0 km/h (0 Bft) NW 315 0 min 0,0 UV-I 8,3 C 10,0 C 0,0 km/h (0 Bft)
03.04.2011 02:20 12,1 C 14,4 C 10,7 C 11,3 C 9,8 C 0,0 C 77 % 82 % 0 % 1012,6 hPa 0,0 l/m 0,0 km/h (0 Bft) SW 225 0 min 0,0 UV-I 8,2 C 9,8 C 0,0 km/h (0 Bft)
03.04.2011 02:25 12,0 C 14,4 C 10,7 C 11,2 C 9,5 C 0,0 C 78 % 82 % 0 % 1012,6 hPa 0,0 l/m 0,0 km/h (0 Bft) SW 225 0 min 0,0 UV-I 8,3 C 9,5 C 0,0 km/h (0 Bft)
03.04.2011 02:30 12,0 C 14,4 C 10,5 C 11,2 C 9,5 C 0,0 C 78 % 83 % 0 % 1012,6 hPa 0,0 l/m 0,0 km/h (0 Bft) W 270 0 min 0,0 UV-I 8,3 C 9,5 C 0,0 km/h (0 Bft)
03.04.2011 02:35 11,9 C 14,4 C 10,4 C 11,1 C 9,5 C 0,0 C 78 % 83 % 0 % 1012,5 hPa 0,0 l/m 0,2 km/h (0 Bft) W-NW 292 0 min 0,0 UV-I 8,2 C 9,5 C 0,0 km/h (0 Bft)
03.04.2011 02:40 11,9 C 14,4 C 10,4 C 11,1 C 9,5 C 0,0 C 79 % 83 % 0 % 1012,5 hPa 0,0 l/m 0,2 km/h (0 Bft) W-SW 247 0 min 0,0 UV-I 8,4 C 9,5 C 0,0 km/h (0 Bft)
03.04.2011 02:45 11,8 C 14,3 C 10,3 C 11,0 C 9,5 C 0,0 C 78 % 82 % 0 % 1012,5 hPa 0,0 l/m 0,0 km/h (0 Bft) W-SW 247 0 min 0,0 UV-I 8,1 C 9,5 C 0,0 km/h (0 Bft)
03.04.2011 02:50 11,9 C 14,3 C 10,3 C 11,1 C 9,5 C 0,0 C 79 % 83 % 0 % 1012,5 hPa 0,0 l/m 0,0 km/h (0 Bft) W 270 0 min 0,0 UV-I 8,4 C 9,5 C 0,0 km/h (0 Bft)
03.04.2011 02:55 11,8 C 14,3 C 10,3 C 11,0 C 9,5 C 0,0 C 79 % 84 % 0 % 1012,2 hPa 0,0 l/m 0,0 km/h (0 Bft) W-SW 247 0 min 0,0 UV-I 8,3 C 9,5 C 0,0 km/h (0 Bft)
03.04.2011 03:00 11,7 C 14,3 C 10,3 C 10,9 C 9,4 C 0,0 C 79 % 84 % 0 % 1012,2 hPa 0,0 l/m 0,5 km/h (0 Bft) W 270 0 min 0,0 UV-I 8,2 C 9,4 C 2,3 km/h (1 Bft)
03.04.2011 03:09 11,7 C 14,3 C 10,3 C 11,0 C 9,7 C 0,0 C 79 % 84 % 0 % 1012,2 hPa 0,0 l/m 0,8 km/h (0 Bft) N 0 0 min 0,0 UV-I 8,2 C 9,7 C 0,0 km/h (0 Bft)
03.04.2011 03:15 11,6 C 14,3 C 10,3 C 10,9 C 9,5 C 0,0 C 79 % 84 % 0 % 1012,0 hPa 0,0 l/m 0,2 km/h (0 Bft) W-NW 292 0 min 0,0 UV-I 8,1 C 9,5 C 0,0 km/h (0 Bft)
03.04.2011 03:20 11,5 C 14,3 C 10,1 C 10,8 C 9,4 C 0,0 C 80 % 84 % 0 % 1012,0 hPa 0,0 l/m 0,2 km/h (0 Bft) W 270 0 min 0,0 UV-I 8,2 C 9,4 C 0,0 km/h (0 Bft)
03.04.2011 03:25 11,4 C 14,3 C 10,1 C 10,6 C 9,1 C 0,0 C 80 % 84 % 0 % 1012,0 hPa 0,0 l/m 0,2 km/h (0 Bft) W 270 0 min 0,0 UV-I 8,1 C 9,1 C 0,0 km/h (0 Bft)
03.04.2011 03:30 11,5 C 14,3 C 10,0 C 10,7 C 9,0 C 0,0 C 80 % 84 % 0 % 1012,0 hPa 0,0 l/m 0,0 km/h (0 Bft) W 270 0 min 0,0 UV-I 8,2 C 9,0 C 0,0 km/h (0 Bft)
03.04.2011 03:35 11,3 C 14,3 C 9,8 C 10,5 C 8,8 C 0,0 C 80 % 84 % 0 % 1012,1 hPa 0,0 l/m 0,0 km/h (0 Bft) NW 315 0 min 0,0 UV-I 8,0 C 8,8 C 0,0 km/h (0 Bft)
03.04.2011 03:40 11,3 C 14,3 C 9,9 C 10,4 C 8,7 C 0,0 C 80 % 84 % 0 % 1012,1 hPa 0,0 l/m 0,0 km/h (0 Bft) NW 315 0 min 0,0 UV-I 8,0 C 8,7 C 0,0 km/h (0 Bft)
03.04.2011 03:45 11,1 C 14,3 C 9,6 C 10,3 C 8,6 C 0,0 C 80 % 85 % 0 % 1012,1 hPa 0,0 l/m 0,0 km/h (0 Bft) NW 315 0 min 0,0 UV-I 7,8 C 8,6 C 0,0 km/h (0 Bft)
03.04.2011 03:50 11,1 C 14,3 C 9,7 C 10,3 C 8,7 C 0,0 C 80 % 85 % 0 % 1012,1 hPa 0,0 l/m 0,0 km/h (0 Bft) NW 315 0 min 0,0 UV-I 7,8 C 8,7 C 0,0 km/h (0 Bft)
03.04.2011 03:55 11,1 C 14,3 C 9,6 C 10,3 C 8,7 C 0,0 C 80 % 85 % 0 % 1012,5 hPa 0,0 l/m 0,0 km/h (0 Bft) W-SW 247 0 min 0,0 UV-I 7,8 C 8,7 C 0,0 km/h (0 Bft)
03.04.2011 04:00 11,0 C 14,3 C 9,5 C 10,2 C 8,6 C 0,0 C 80 % 85 % 0 % 1012,5 hPa 0,0 l/m 0,0 km/h (0 Bft) W-SW 247 0 min 0,0 UV-I 7,7 C 8,6 C 0,0 km/h (0 Bft)
03.04.2011 04:09 10,8 C 14,3 C 9,3 C 10,0 C 8,5 C 0,0 C 81 % 85 % 0 % 1012,5 hPa 0,0 l/m 0,0 km/h (0 Bft) N 0 0 min 0,0 UV-I 7,7 C 8,5 C 0,0 km/h (0 Bft)
03.04.2011 04:15 10,8 C 14,3 C 9,2 C 10,1 C 8,6 C 0,0 C 81 % 85 % 0 % 1012,1 hPa 0,0 l/m 0,0 km/h (0 Bft) NW 315 0 min 0,0 UV-I 7,7 C 8,6 C 0,0 km/h (0 Bft)
03.04.2011 04:20 10,8 C 14,3 C 9,3 C 10,1 C 8,6 C 0,0 C 81 % 85 % 0 % 1012,1 hPa 0,0 l/m 0,0 km/h (0 Bft) W 270 0 min 0,0 UV-I 7,7 C 8,6 C 0,0 km/h (0 Bft)
03.04.2011 04:25 10,9 C 14,3 C 9,3 C 10,1 C 8,5 C 0,0 C 81 % 85 % 0 % 1012,1 hPa 0,0 l/m 0,0 km/h (0 Bft) NW 315 0 min 0,0 UV-I 7,8 C 8,5 C 0,0 km/h (0 Bft)
03.04.2011 04:30 10,7 C 14,3 C 9,1 C 10,0 C 8,6 C 0,0 C 81 % 86 % 0 % 1012,1 hPa 0,0 l/m 0,0 km/h (0 Bft) NW 315 0 min 0,0 UV-I 7,6 C 8,6 C 0,0 km/h (0 Bft)
03.04.2011 04:35 10,7 C 14,2 C 9,0 C 10,0 C 8,5 C 0,0 C 81 % 86 % 0 % 1011,8 hPa 0,0 l/m 0,0 km/h (0 Bft) NW 315 0 min 0,0 UV-I 7,6 C 8,5 C 0,0 km/h (0 Bft)
03.04.2011 04:40 10,5 C 14,2 C 8,9 C 9,8 C 8,3 C 0,0 C 81 % 86 % 0 % 1011,8 hPa 0,0 l/m 0,0 km/h (0 Bft) NW 315 0 min 0,0 UV-I 7,4 C 8,3 C 0,0 km/h (0 Bft)
03.04.2011 04:45 10,4 C 14,2 C 8,9 C 9,7 C 8,2 C 0,0 C 82 % 86 % 0 % 1011,8 hPa 0,0 l/m 0,0 km/h (0 Bft) NW 315 0 min 0,0 UV-I 7,5 C 8,2 C 0,0 km/h (0 Bft)
03.04.2011 04:50 10,4 C 14,2 C 8,7 C 9,6 C 8,0 C 0,0 C 82 % 86 % 0 % 1011,8 hPa 0,0 l/m 0,0 km/h (0 Bft) NW 315 0 min 0,0 UV-I 7,5 C 8,0 C 0,0 km/h (0 Bft)
03.04.2011 04:55 10,3 C 14,3 C 8,7 C 9,5 C 7,9 C 0,0 C 82 % 86 % 0 % 1011,7 hPa 0,0 l/m 0,0 km/h (0 Bft) NW 315 0 min 0,0 UV-I 7,4 C 7,9 C 0,0 km/h (0 Bft)
03.04.2011 05:00 10,3 C 14,2 C 8,6 C 9,5 C 7,8 C 0,0 C 82 % 87 % 0 % 1011,7 hPa 0,0 l/m 0,0 km/h (0 Bft) S-SW 202 0 min 0,0 UV-I 7,4 C 7,8 C 0,0 km/h (0 Bft)
03.04.2011 05:09 10,1 C 14,2 C 8,4 C 9,3 C 7,7 C 0,0 C 82 % 87 % 0 % 1011,7 hPa 0,0 l/m 0,0 km/h (0 Bft) N 0 0 min 0,0 UV-I 7,2 C 7,7 C 0,0 km/h (0 Bft)
03.04.2011 05:15 10,0 C 14,2 C 8,4 C 9,2 C 7,6 C 0,0 C 82 % 87 % 0 % 1011,6 hPa 0,0 l/m 0,0 km/h (0 Bft) S 180 0 min 0,0 UV-I 7,1 C 7,6 C 0,0 km/h (0 Bft)
03.04.2011 05:20 10,0 C 14,2 C 8,4 C 9,2 C 7,6 C 0,0 C 82 % 87 % 0 % 1011,6 hPa 0,0 l/m 0,0 km/h (0 Bft) S 180 0 min 0,0 UV-I 7,1 C 7,6 C 0,0 km/h (0 Bft)
03.04.2011 05:25 10,0 C 14,1 C 8,3 C 9,1 C 7,4 C 0,0 C 82 % 87 % 0 % 1011,6 hPa 0,0 l/m 0,0 km/h (0 Bft) W-SW 247 0 min 0,0 UV-I 7,1 C 7,4 C 0,0 km/h (0 Bft)
03.04.2011 05:30 9,9 C 14,1 C 8,3 C 9,0 C 7,3 C 0,0 C 82 % 87 % 0 % 1011,6 hPa 0,0 l/m 0,0 km/h (0 Bft) W-SW 247 0 min 0,0 UV-I 7,0 C 7,3 C 0,0 km/h (0 Bft)
03.04.2011 05:35 9,7 C 14,1 C 8,3 C 8,9 C 7,3 C 0,0 C 82 % 87 % 0 % 1011,5 hPa 0,0 l/m 0,0 km/h (0 Bft) W-SW 247 0 min 0,0 UV-I 6,8 C 7,3 C 0,0 km/h (0 Bft)
03.04.2011 05:40 9,7 C 14,1 C 8,2 C 8,9 C 7,2 C 0,0 C 83 % 87 % 0 % 1011,5 hPa 0,0 l/m 0,0 km/h (0 Bft) W-SW 247 0 min 0,0 UV-I 7,0 C 7,2 C 0,0 km/h (0 Bft)
03.04.2011 05:45 9,6 C 14,0 C 8,1 C 8,8 C 7,3 C 0,0 C 82 % 87 % 0 % 1011,5 hPa 0,0 l/m 0,0 km/h (0 Bft) W-SW 247 0 min 0,0 UV-I 6,7 C 7,3 C 0,0 km/h (0 Bft)
03.04.2011 05:50 9,6 C 14,0 C 8,1 C 8,8 C 7,3 C 0,0 C 83 % 88 % 0 % 1011,5 hPa 0,0 l/m 0,0 km/h (0 Bft) W-SW 247 0 min 0,0 UV-I 6,9 C 7,3 C 0,0 km/h (0 Bft)
03.04.2011 05:55 9,6 C 14,0 C 8,0 C 8,8 C 7,1 C 0,0 C 83 % 87 % 0 % 1011,4 hPa 0,0 l/m 0,0 km/h (0 Bft) W-SW 247 0 min 0,0 UV-I 6,9 C 7,1 C 0,0 km/h (0 Bft)
03.04.2011 06:00 9,5 C 14,0 C 7,9 C 8,7 C 7,1 C 0,0 C 83 % 87 % 0 % 1011,4 hPa 0,0 l/m 0,0 km/h (0 Bft) W-SW 247 0 min 0,0 UV-I 6,8 C 7,1 C 0,0 km/h (0 Bft)
03.04.2011 06:09 9,5 C 13,9 C 7,9 C 8,6 C 6,9 C 0,0 C 83 % 88 % 0 % 1011,4 hPa 0,0 l/m 0,0 km/h (0 Bft) N 0 0 min 0,0 UV-I 6,8 C 6,9 C 0,0 km/h (0 Bft)
03.04.2011 06:15 9,5 C 13,9 C 7,9 C 8,6 C 6,9 C 0,0 C 83 % 88 % 0 % 1011,5 hPa 0,0 l/m 0,0 km/h (0 Bft) W-SW 247 0 min 0,0 UV-I 6,8 C 6,9 C 0,0 km/h (0 Bft)
03.04.2011 06:20 9,5 C 13,9 C 7,8 C 8,6 C 6,8 C 0,0 C 83 % 87 % 0 % 1011,5 hPa 0,0 l/m 0,0 km/h (0 Bft) W-SW 247 0 min 0,0 UV-I 6,8 C 6,8 C 0,0 km/h (0 Bft)
03.04.2011 06:25 9,4 C 13,9 C 7,9 C 8,5 C 6,7 C 0,0 C 84 % 88 % 0 % 1011,5 hPa 0,0 l/m 0,0 km/h (0 Bft) W-SW 247 0 min 0,0 UV-I 6,8 C 6,7 C 0,0 km/h (0 Bft)
03.04.2011 06:30 9,3 C 13,9 C 7,7 C 8,4 C 6,6 C 0,0 C 84 % 88 % 0 % 1011,5 hPa 0,0 l/m 0,0 km/h (0 Bft) W-SW 247 0 min 0,0 UV-I 6,7 C 6,6 C 0,0 km/h (0 Bft)
03.04.2011 06:35 9,2 C 13,8 C 7,7 C 8,4 C 6,8 C 0,0 C 83 % 88 % 0 % 1011,7 hPa 0,0 l/m 0,0 km/h (0 Bft) W-SW 247 0 min 0,0 UV-I 6,5 C 6,8 C 0,0 km/h (0 Bft)
03.04.2011 06:40 9,1 C 13,8 C 7,7 C 8,3 C 6,6 C 0,0 C 84 % 88 % 0 % 1011,7 hPa 0,0 l/m 0,0 km/h (0 Bft) W-SW 247 0 min 0,0 UV-I 6,5 C 6,6 C 0,0 km/h (0 Bft)
03.04.2011 06:45 9,2 C 13,8 C 7,6 C 8,3 C 6,6 C 0,0 C 84 % 88 % 0 % 1011,7 hPa 0,0 l/m 0,0 km/h (0 Bft) W-SW 247 0 min 0,0 UV-I 6,6 C 6,6 C 0,0 km/h (0 Bft)
03.04.2011 06:50 9,3 C 13,8 C 7,6 C 8,4 C 6,6 C 0,0 C 84 % 88 % 0 % 1011,7 hPa 0,0 l/m 0,0 km/h (0 Bft) SW 225 0 min 0,0 UV-I 6,7 C 6,6 C 0,0 km/h (0 Bft)
03.04.2011 06:55 9,2 C 13,8 C 7,5 C 8,3 C 6,6 C 0,0 C 84 % 88 % 0 % 1011,6 hPa 0,0 l/m 0,0 km/h (0 Bft) O-NO 67 0 min 0,0 UV-I 6,6 C 6,6 C 0,0 km/h (0 Bft)
03.04.2011 07:00 9,1 C 13,8 C 7,5 C 8,3 C 6,7 C 0,0 C 84 % 88 % 0 % 1011,6 hPa 0,0 l/m 0,0 km/h (0 Bft) W-SW 247 0 min 0,0 UV-I 6,5 C 6,7 C 0,0 km/h (0 Bft)
03.04.2011 07:09 9,6 C 13,7 C 7,5 C 8,8 C 7,3 C 0,0 C 84 % 89 % 0 % 1011,6 hPa 0,0 l/m 0,0 km/h (0 Bft) N 0 0 min 0,0 UV-I 7,0 C 7,3 C 0,0 km/h (0 Bft)
03.04.2011 07:15 10,6 C 13,7 C 7,5 C 9,7 C 8,0 C 0,0 C 81 % 88 % 0 % 1011,6 hPa 0,0 l/m 0,0 km/h (0 Bft) W 270 0 min 0,0 UV-I 7,5 C 8,0 C 0,0 km/h (0 Bft)
03.04.2011 07:20 10,7 C 13,7 C 7,4 C 9,9 C 8,2 C 0,0 C 80 % 88 % 0 % 1011,6 hPa 0,0 l/m 0,0 km/h (0 Bft) W 270 0 min 0,0 UV-I 7,4 C 8,2 C 0,0 km/h (0 Bft)
03.04.2011 07:25 11,0 C 13,7 C 7,5 C 10,2 C 8,5 C 0,0 C 80 % 88 % 0 % 1011,6 hPa 0,0 l/m 0,0 km/h (0 Bft) W 270 0 min 0,0 UV-I 7,7 C 8,5 C 0,0 km/h (0 Bft)
03.04.2011 07:30 11,7 C 13,7 C 7,6 C 10,9 C 9,3 C 0,0 C 79 % 89 % 0 % 1011,6 hPa 0,0 l/m 0,0 km/h (0 Bft) W 270 0 min 0,0 UV-I 8,2 C 9,3 C 0,0 km/h (0 Bft)
03.04.2011 07:35 12,5 C 13,6 C 7,7 C 11,9 C 10,7 C 0,0 C 77 % 89 % 0 % 1011,5 hPa 0,0 l/m 0,0 km/h (0 Bft) W-NW 292 0 min 0,0 UV-I 8,6 C 10,7 C 0,0 km/h (0 Bft)
03.04.2011 07:40 12,7 C 13,7 C 7,9 C 12,3 C 11,6 C 0,0 C 75 % 89 % 0 % 1011,5 hPa 0,0 l/m 0,0 km/h (0 Bft) NW 315 0 min 0,0 UV-I 8,4 C 11,6 C 0,0 km/h (0 Bft)
03.04.2011 07:45 12,9 C 13,5 C 8,1 C 13,0 C 13,0 C 0,1 C 75 % 89 % 3 % 1011,5 hPa 0,0 l/m 0,0 km/h (0 Bft) NW 315 0 min 0,0 UV-I 8,6 C 13,0 C 0,0 km/h (0 Bft)
03.04.2011 07:50 12,8 C 13,5 C 8,4 C 13,9 C 13,9 C 1,1 C 75 % 89 % 29 % 1011,5 hPa 0,0 l/m 0,0 km/h (0 Bft) NW 315 0 min 0,0 UV-I 8,5 C 13,9 C 0,0 km/h (0 Bft)
03.04.2011 07:55 12,7 C 13,5 C 8,5 C 14,8 C 14,8 C 2,1 C 76 % 89 % 55 % 1011,2 hPa 0,0 l/m 0,0 km/h (0 Bft) NW 315 5 min 0,0 UV-I 8,6 C 14,8 C 0,0 km/h (0 Bft)
03.04.2011 08:00 13,4 C 13,4 C 8,7 C 14,7 C 14,7 C 1,3 C 75 % 89 % 34 % 1011,2 hPa 0,0 l/m 0,3 km/h (0 Bft) W-NW 292 0 min 0,0 UV-I 9,1 C 14,7 C 0,0 km/h (0 Bft)
03.04.2011 08:09 12,7 C 13,3 C 9,9 C 16,2 C 16,2 C 3,5 C 75 % 89 % 92 % 1011,2 hPa 0,0 l/m 0,2 km/h (0 Bft) N 0 9 min 0,0 UV-I 8,4 C 16,2 C 0,0 km/h (0 Bft)
03.04.2011 08:15 12,5 C 13,3 C 10,5 C 16,8 C 16,8 C 4,3 C 77 % 89 % 100 % 1011,4 hPa 0,0 l/m 0,0 km/h (0 Bft) SW 225 6 min 0,0 UV-I 8,6 C 16,8 C 0,0 km/h (0 Bft)
03.04.2011 08:20 12,4 C 13,1 C 10,7 C 17,1 C 17,1 C 4,7 C 77 % 87 % 100 % 1011,4 hPa 0,0 l/m 0,0 km/h (0 Bft) W-NW 292 5 min 0,0 UV-I 8,5 C 17,1 C 0,0 km/h (0 Bft)
03.04.2011 08:25 12,4 C 13,0 C 10,7 C 17,5 C 17,5 C 5,1 C 77 % 86 % 100 % 1011,4 hPa 0,0 l/m 0,0 km/h (0 Bft) W-SW 247 5 min 0,1 UV-I 8,5 C 17,5 C 0,0 km/h (0 Bft)
03.04.2011 08:30 12,5 C 13,0 C 10,8 C 18,0 C 18,0 C 5,5 C 77 % 86 % 100 % 1011,4 hPa 0,0 l/m 0,0 km/h (0 Bft) S-SW 202 5 min 0,1 UV-I 8,6 C 18,0 C 0,0 km/h (0 Bft)
03.04.2011 08:35 12,4 C 13,0 C 11,5 C 18,2 C 18,2 C 5,8 C 77 % 84 % 100 % 1011,4 hPa 0,0 l/m 0,2 km/h (0 Bft) W-SW 247 5 min 0,1 UV-I 8,5 C 18,2 C 0,0 km/h (0 Bft)
03.04.2011 08:40 12,4 C 13,0 C 11,6 C 18,1 C 18,1 C 5,7 C 77 % 84 % 100 % 1011,4 hPa 0,0 l/m 0,2 km/h (0 Bft) SW 225 5 min 0,1 UV-I 8,5 C 18,1 C 0,0 km/h (0 Bft)
03.04.2011 08:45 12,6 C 12,9 C 11,9 C 18,5 C 18,5 C 5,9 C 77 % 82 % 100 % 1011,4 hPa 0,0 l/m 0,2 km/h (0 Bft) SW 225 5 min 0,1 UV-I 8,7 C 18,5 C 1,6 km/h (1 Bft)
03.04.2011 08:50 12,7 C 13,0 C 12,0 C 18,5 C 18,5 C 5,8 C 77 % 82 % 100 % 1011,4 hPa 0,0 l/m 0,2 km/h (0 Bft) SW 225 5 min 0,1 UV-I 8,8 C 18,5 C 0,0 km/h (0 Bft)
03.04.2011 08:55 12,9 C 12,9 C 12,5 C 18,5 C 18,5 C 5,6 C 77 % 81 % 100 % 1011,9 hPa 0,0 l/m 0,8 km/h (0 Bft) S-SW 202 5 min 0,2 UV-I 9,0 C 18,5 C 3,1 km/h (1 Bft)
03.04.2011 09:00 13,0 C 12,9 C 13,1 C 18,7 C 18,7 C 5,7 C 77 % 80 % 100 % 1011,9 hPa 0,0 l/m 1,0 km/h (0 Bft) N-NO 22 5 min 0,2 UV-I 9,1 C 18,7 C 0,0 km/h (0 Bft)
03.04.2011 09:10 13,6 C 12,8 C 14,1 C 19,5 C 19,5 C 5,9 C 76 % 77 % 100 % 1011,9 hPa 0,0 l/m 0,5 km/h (0 Bft) N 0 10 min 0,3 UV-I 9,4 C 19,5 C 3,5 km/h (1 Bft)
03.04.2011 09:15 14,0 C 12,8 C 14,7 C 19,8 C 19,8 C 5,8 C 75 % 75 % 100 % 1011,6 hPa 0,0 l/m 0,5 km/h (0 Bft) O-NO 67 5 min 0,4 UV-I 9,6 C 19,8 C 0,0 km/h (0 Bft)
03.04.2011 09:20 14,2 C 12,8 C 14,9 C 19,9 C 19,9 C 5,7 C 74 % 74 % 100 % 1011,6 hPa 0,0 l/m 0,5 km/h (0 Bft) S-SO 157 5 min 0,4 UV-I 9,6 C 19,9 C 0,0 km/h (0 Bft)
03.04.2011 09:25 14,5 C 12,8 C 15,3 C 20,1 C 20,1 C 5,6 C 74 % 73 % 100 % 1011,6 hPa 0,0 l/m 0,8 km/h (0 Bft) S-SW 202 5 min 0,5 UV-I 9,9 C 20,1 C 4,0 km/h (1 Bft)
03.04.2011 09:30 14,6 C 12,8 C 15,1 C 20,2 C 20,2 C 5,6 C 74 % 73 % 100 % 1011,6 hPa 0,0 l/m 1,0 km/h (0 Bft) O-SO 112 5 min 0,5 UV-I 10,0 C 20,2 C 3,5 km/h (1 Bft)
03.04.2011 09:35 14,6 C 12,9 C 15,3 C 20,6 C 20,6 C 6,0 C 74 % 73 % 100 % 1011,6 hPa 0,0 l/m 1,4 km/h (1 Bft) SW 225 5 min 0,6 UV-I 10,0 C 20,6 C 2,3 km/h (1 Bft)
03.04.2011 09:40 14,7 C 12,8 C 15,1 C 20,8 C 20,8 C 6,1 C 74 % 73 % 100 % 1011,6 hPa 0,0 l/m 1,6 km/h (1 Bft) S-SW 202 5 min 0,6 UV-I 10,1 C 20,8 C 3,1 km/h (1 Bft)
03.04.2011 09:45 14,8 C 12,8 C 15,2 C 20,3 C 20,3 C 5,5 C 74 % 73 % 100 % 1011,6 hPa 0,0 l/m 1,1 km/h (1 Bft) SW 225 5 min 0,7 UV-I 10,2 C 20,3 C 1,9 km/h (1 Bft)
03.04.2011 09:50 14,9 C 12,8 C 15,4 C 20,3 C 20,3 C 5,4 C 73 % 73 % 100 % 1011,6 hPa 0,0 l/m 1,1 km/h (1 Bft) SW 225 5 min 0,7 UV-I 10,1 C 20,3 C 2,3 km/h (1 Bft)
03.04.2011 09:55 15,1 C 12,9 C 15,7 C 19,6 C 19,6 C 4,5 C 73 % 73 % 100 % 1010,8 hPa 0,0 l/m 1,4 km/h (1 Bft) S-SW 202 5 min 0,8 UV-I 10,3 C 19,6 C 2,6 km/h (1 Bft)
03.04.2011 10:00 15,3 C 12,9 C 15,9 C 19,8 C 19,8 C 4,5 C 73 % 71 % 100 % 1010,8 hPa 0,0 l/m 1,8 km/h (1 Bft) SW 225 5 min 0,8 UV-I 10,5 C 19,8 C 1,6 km/h (1 Bft)
03.04.2011 10:09 15,6 C 12,8 C 16,0 C 20,5 C 20,5 C 4,9 C 72 % 71 % 100 % 1010,8 hPa 0,0 l/m 1,3 km/h (1 Bft) N 0 9 min 0,8 UV-I 10,6 C 20,5 C 2,3 km/h (1 Bft)
03.04.2011 10:15 15,9 C 12,9 C 16,0 C 21,1 C 21,1 C 5,2 C 71 % 71 % 100 % 1010,6 hPa 0,0 l/m 1,0 km/h (0 Bft) S-SW 202 6 min 0,9 UV-I 10,6 C 21,1 C 2,9 km/h (1 Bft)
03.04.2011 10:20 16,0 C 12,9 C 16,3 C 21,6 C 21,6 C 5,6 C 71 % 70 % 100 % 1010,6 hPa 0,0 l/m 1,4 km/h (1 Bft) SW 225 5 min 0,9 UV-I 10,7 C 21,6 C 3,1 km/h (1 Bft)
03.04.2011 10:25 16,4 C 12,9 C 16,7 C 22,4 C 22,4 C 6,0 C 70 % 69 % 100 % 1010,6 hPa 0,0 l/m 2,1 km/h (1 Bft) S 180 5 min 1,0 UV-I 10,9 C 22,4 C 5,0 km/h (1 Bft)
03.04.2011 10:30 16,6 C 12,9 C 16,8 C 22,9 C 22,9 C 6,3 C 69 % 69 % 100 % 1010,6 hPa 0,0 l/m 1,9 km/h (1 Bft) W-SW 247 5 min 1,0 UV-I 10,9 C 22,9 C 0,0 km/h (0 Bft)
03.04.2011 10:35 17,0 C 13,0 C 17,1 C 24,0 C 24,0 C 7,0 C 69 % 70 % 100 % 1011,2 hPa 0,0 l/m 1,3 km/h (1 Bft) S-SW 202 5 min 1,1 UV-I 11,3 C 24,0 C 0,0 km/h (0 Bft)
03.04.2011 10:40 17,2 C 12,9 C 17,1 C 24,4 C 24,4 C 7,2 C 68 % 69 % 100 % 1011,2 hPa 0,0 l/m 1,8 km/h (1 Bft) S-SW 202 5 min 1,1 UV-I 11,2 C 24,4 C 2,3 km/h (1 Bft)
03.04.2011 10:45 17,6 C 12,9 C 17,5 C 24,5 C 24,5 C 6,9 C 66 % 67 % 100 % 1011,2 hPa 0,0 l/m 1,9 km/h (1 Bft) SW 225 5 min 1,1 UV-I 11,2 C 24,5 C 4,5 km/h (1 Bft)
03.04.2011 10:50 17,8 C 12,9 C 17,8 C 24,2 C 24,2 C 6,4 C 65 % 66 % 100 % 1011,2 hPa 0,0 l/m 2,6 km/h (1 Bft) SW 225 5 min 1,1 UV-I 11,1 C 24,2 C 3,2 km/h (1 Bft)
03.04.2011 10:55 18,1 C 12,9 C 18,1 C 23,6 C 23,6 C 5,5 C 65 % 65 % 100 % 1010,9 hPa 0,0 l/m 3,7 km/h (1 Bft) W-SW 247 5 min 1,2 UV-I 11,4 C 23,6 C 7,4 km/h (2 Bft)
03.04.2011 11:00 18,3 C 12,9 C 18,4 C 23,2 C 23,2 C 4,9 C 64 % 63 % 100 % 1010,9 hPa 0,0 l/m 4,3 km/h (1 Bft) SW 225 5 min 1,2 UV-I 11,4 C 23,2 C 6,6 km/h (2 Bft)
03.04.2011 11:09 18,9 C 13,0 C 19,1 C 23,1 C 23,1 C 4,2 C 61 % 60 % 100 % 1010,9 hPa 0,0 l/m 5,1 km/h (1 Bft) N 0 9 min 1,2 UV-I 11,2 C 23,1 C 8,0 km/h (2 Bft)
03.04.2011 11:15 19,0 C 13,0 C 19,3 C 23,3 C 23,3 C 4,3 C 60 % 59 % 100 % 1011,0 hPa 0,0 l/m 4,8 km/h (1 Bft) S-SW 202 6 min 1,3 UV-I 11,1 C 23,3 C 8,2 km/h (2 Bft)
03.04.2011 11:20 19,3 C 13,1 C 19,2 C 23,8 C 23,8 C 4,5 C 60 % 59 % 100 % 1011,0 hPa 0,0 l/m 3,7 km/h (1 Bft) S-SO 157 5 min 1,3 UV-I 11,3 C 23,8 C 6,0 km/h (2 Bft)
03.04.2011 11:25 19,4 C 13,1 C 19,5 C 23,8 C 23,8 C 4,4 C 59 % 57 % 100 % 1011,0 hPa 0,0 l/m 2,7 km/h (1 Bft) S-SO 157 5 min 1,2 UV-I 11,2 C 23,8 C 6,1 km/h (2 Bft)
03.04.2011 11:30 19,6 C 13,1 C 19,5 C 23,8 C 23,8 C 4,2 C 58 % 58 % 100 % 1011,0 hPa 0,0 l/m 2,7 km/h (1 Bft) S-SW 202 5 min 1,2 UV-I 11,1 C 23,8 C 3,7 km/h (1 Bft)
03.04.2011 11:35 19,9 C 13,2 C 19,9 C 24,1 C 24,1 C 4,2 C 57 % 57 % 100 % 1010,9 hPa 0,0 l/m 3,4 km/h (1 Bft) S-SO 157 5 min 1,3 UV-I 11,1 C 24,1 C 3,4 km/h (1 Bft)
03.04.2011 11:40 20,0 C 13,2 C 20,1 C 24,2 C 24,2 C 4,2 C 57 % 57 % 100 % 1010,9 hPa 0,0 l/m 2,7 km/h (1 Bft) S-SW 202 5 min 1,3 UV-I 11,2 C 24,2 C 2,1 km/h (1 Bft)
03.04.2011 11:45 20,2 C 13,2 C 20,3 C 24,5 C 24,5 C 4,3 C 56 % 57 % 100 % 1010,9 hPa 0,0 l/m 2,1 km/h (1 Bft) SW 225 5 min 1,4 UV-I 11,1 C 24,5 C 3,7 km/h (1 Bft)
03.04.2011 11:50 20,4 C 13,3 C 20,5 C 24,8 C 24,8 C 4,4 C 56 % 55 % 100 % 1010,9 hPa 0,0 l/m 1,9 km/h (1 Bft) SW 225 5 min 1,4 UV-I 11,3 C 24,8 C 2,1 km/h (1 Bft)
03.04.2011 11:55 20,7 C 13,3 C 20,8 C 24,9 C 24,9 C 4,2 C 55 % 55 % 100 % 1011,1 hPa 0,0 l/m 2,4 km/h (1 Bft) S-SO 157 5 min 1,4 UV-I 11,3 C 24,9 C 4,7 km/h (1 Bft)
03.04.2011 12:00 20,9 C 13,4 C 20,9 C 24,8 C 24,8 C 3,9 C 55 % 54 % 100 % 1011,1 hPa 0,0 l/m 3,4 km/h (1 Bft) S 180 5 min 1,4 UV-I 11,5 C 24,8 C 3,2 km/h (1 Bft)
03.04.2011 12:09 21,1 C 13,5 C 21,3 C 25,5 C 25,5 C 4,4 C 54 % 53 % 100 % 1011,1 hPa 0,0 l/m 2,3 km/h (1 Bft) N 0 9 min 1,5 UV-I 11,4 C 25,5 C 4,5 km/h (1 Bft)
03.04.2011 12:15 21,2 C 13,5 C 21,5 C 25,5 C 25,5 C 4,3 C 54 % 53 % 100 % 1010,9 hPa 0,0 l/m 3,7 km/h (1 Bft) SW 225 6 min 1,5 UV-I 11,5 C 25,5 C 4,2 km/h (1 Bft)
03.04.2011 12:20 21,3 C 13,5 C 21,5 C 25,4 C 25,4 C 4,1 C 54 % 53 % 100 % 1010,9 hPa 0,0 l/m 3,9 km/h (1 Bft) S-SW 202 5 min 1,5 UV-I 11,6 C 25,4 C 6,6 km/h (2 Bft)
03.04.2011 12:25 21,1 C 13,6 C 21,5 C 24,9 C 24,9 C 3,8 C 54 % 53 % 100 % 1010,9 hPa 0,0 l/m 4,0 km/h (1 Bft) SW 225 5 min 1,4 UV-I 11,4 C 24,9 C 5,3 km/h (1 Bft)
03.04.2011 12:30 21,3 C 13,6 C 21,6 C 24,6 C 24,6 C 3,3 C 53 % 52 % 87 % 1010,9 hPa 0,0 l/m 4,0 km/h (1 Bft) SW 225 5 min 1,4 UV-I 11,3 C 24,6 C 3,5 km/h (1 Bft)
03.04.2011 12:35 21,3 C 13,7 C 21,5 C 24,8 C 24,8 C 3,5 C 53 % 53 % 92 % 1010,3 hPa 0,0 l/m 2,6 km/h (1 Bft) W-SW 247 5 min 1,5 UV-I 11,3 C 24,8 C 2,9 km/h (1 Bft)
03.04.2011 12:40 21,4 C 13,7 C 21,6 C 25,2 C 25,2 C 3,8 C 53 % 52 % 100 % 1010,3 hPa 0,0 l/m 2,6 km/h (1 Bft) SW 225 5 min 1,5 UV-I 11,4 C 25,2 C 6,3 km/h (2 Bft)
03.04.2011 12:45 21,4 C 13,8 C 21,7 C 25,2 C 25,2 C 3,8 C 53 % 53 % 100 % 1010,3 hPa 0,0 l/m 3,9 km/h (1 Bft) SW 225 5 min 1,6 UV-I 11,4 C 25,2 C 8,7 km/h (2 Bft)
03.04.2011 12:50 21,3 C 13,8 C 21,6 C 25,1 C 25,1 C 3,8 C 53 % 52 % 100 % 1010,3 hPa 0,0 l/m 4,3 km/h (1 Bft) SW 225 5 min 1,6 UV-I 11,3 C 25,1 C 6,3 km/h (2 Bft)
03.04.2011 12:55 21,5 C 13,8 C 21,9 C 25,2 C 25,2 C 3,7 C 53 % 52 % 97 % 1010,4 hPa 0,0 l/m 4,5 km/h (1 Bft) SW 225 5 min 1,7 UV-I 11,5 C 25,2 C 6,0 km/h (2 Bft)
03.04.2011 13:00 21,6 C 13,9 C 22,1 C 25,6 C 25,6 C 4,0 C 53 % 54 % 100 % 1010,4 hPa 0,0 l/m 4,0 km/h (1 Bft) O-NO 67 5 min 1,7 UV-I 11,6 C 25,6 C 0,0 km/h (0 Bft)
03.04.2011 13:09 21,6 C 13,9 C 21,9 C 25,7 C 25,7 C 4,1 C 53 % 54 % 100 % 1010,4 hPa 0,0 l/m 3,9 km/h (1 Bft) N 0 9 min 1,6 UV-I 11,6 C 25,7 C 9,7 km/h (2 Bft)
03.04.2011 13:15 21,9 C 14,0 C 22,5 C 27,1 C 27,1 C 5,2 C 52 % 51 % 100 % 1010,3 hPa 0,0 l/m 3,9 km/h (1 Bft) W-SW 247 6 min 2,4 UV-I 11,6 C 27,1 C 0,0 km/h (0 Bft)
03.04.2011 13:20 22,0 C 14,0 C 22,7 C 27,6 C 27,6 C 5,6 C 51 % 51 % 100 % 1010,3 hPa 0,0 l/m 3,2 km/h (1 Bft) S-SW 202 5 min 2,4 UV-I 11,4 C 27,6 C 8,0 km/h (2 Bft)
03.04.2011 13:25 22,1 C 14,1 C 22,9 C 27,4 C 27,4 C 5,3 C 51 % 49 % 100 % 1010,3 hPa 0,0 l/m 2,7 km/h (1 Bft) W-NW 292 5 min 2,0 UV-I 11,5 C 27,4 C 10,3 km/h (2 Bft)
03.04.2011 13:30 22,1 C 14,1 C 22,8 C 27,2 C 27,2 C 5,1 C 51 % 49 % 100 % 1010,3 hPa 0,0 l/m 3,4 km/h (1 Bft) S-SO 157 5 min 2,0 UV-I 11,5 C 27,2 C 6,1 km/h (2 Bft)
03.04.2011 13:35 22,3 C 14,2 C 23,1 C 27,3 C 27,3 C 5,0 C 51 % 49 % 100 % 1010,0 hPa 0,0 l/m 2,9 km/h (1 Bft) SW 225 5 min 2,1 UV-I 11,7 C 27,3 C 6,8 km/h (2 Bft)
03.04.2011 13:40 22,2 C 14,2 C 23,3 C 27,8 C 27,8 C 5,6 C 51 % 49 % 100 % 1010,0 hPa 0,0 l/m 3,1 km/h (1 Bft) SO 135 5 min 2,1 UV-I 11,6 C 27,8 C 2,9 km/h (1 Bft)
03.04.2011 13:45 22,5 C 14,2 C 23,3 C 28,3 C 28,3 C 5,8 C 50 % 48 % 100 % 1010,0 hPa 0,0 l/m 2,4 km/h (1 Bft) SO 135 5 min 2,5 UV-I 11,5 C 28,3 C 1,8 km/h (1 Bft)
03.04.2011 13:50 22,7 C 14,3 C 23,7 C 29,0 C 29,0 C 6,3 C 48 % 46 % 100 % 1010,0 hPa 0,0 l/m 1,6 km/h (1 Bft) SW 225 5 min 2,5 UV-I 11,1 C 29,0 C 2,1 km/h (1 Bft)
03.04.2011 13:55 22,7 C 14,3 C 24,2 C 29,6 C 29,6 C 6,9 C 48 % 45 % 100 % 1009,9 hPa 0,0 l/m 2,3 km/h (1 Bft) SW 225 5 min 2,4 UV-I 11,1 C 29,6 C 2,6 km/h (1 Bft)
03.04.2011 14:00 22,7 C 14,3 C 24,8 C 29,8 C 29,8 C 7,1 C 47 % 45 % 100 % 1009,9 hPa 0,0 l/m 1,8 km/h (1 Bft) SW 225 5 min 2,4 UV-I 10,8 C 29,8 C 1,6 km/h (1 Bft)
03.04.2011 14:09 22,9 C 14,4 C 25,8 C 29,7 C 29,7 C 6,8 C 48 % 41 % 100 % 1009,9 hPa 0,0 l/m 2,9 km/h (1 Bft) N 0 9 min 2,4 UV-I 11,3 C 29,7 C 3,2 km/h (1 Bft)
03.04.2011 14:15 23,1 C 14,5 C 25,9 C 29,4 C 29,4 C 6,3 C 45 % 39 % 100 % 1009,9 hPa 0,0 l/m 3,1 km/h (1 Bft) NO 45 6 min 2,3 UV-I 10,5 C 29,4 C 7,2 km/h (2 Bft)
03.04.2011 14:20 23,1 C 14,5 C 26,0 C 29,1 C 29,1 C 6,0 C 45 % 42 % 100 % 1009,9 hPa 0,0 l/m 2,6 km/h (1 Bft) O-NO 67 5 min 2,3 UV-I 10,5 C 29,1 C 0,0 km/h (0 Bft)
03.04.2011 14:25 22,9 C 14,6 C 27,6 C 29,4 C 29,4 C 6,5 C 46 % 38 % 100 % 1009,9 hPa 0,0 l/m 4,0 km/h (1 Bft) W-SW 247 5 min 2,3 UV-I 10,7 C 29,4 C 11,6 km/h (2 Bft)
03.04.2011 14:30 23,1 C 14,6 C 28,0 C 29,3 C 29,3 C 6,2 C 45 % 35 % 100 % 1009,9 hPa 0,0 l/m 3,9 km/h (1 Bft) W-SW 247 5 min 2,3 UV-I 10,5 C 29,3 C 4,7 km/h (1 Bft)
03.04.2011 14:35 23,3 C 14,7 C 28,8 C 29,8 C 29,8 C 6,5 C 45 % 35 % 100 % 1009,7 hPa 0,0 l/m 2,3 km/h (1 Bft) SW 225 5 min 2,1 UV-I 10,7 C 29,8 C 5,3 km/h (1 Bft)
03.04.2011 14:40 23,3 C 14,7 C 28,7 C 29,4 C 29,4 C 6,1 C 46 % 37 % 100 % 1009,7 hPa 0,0 l/m 4,0 km/h (1 Bft) O-NO 67 5 min 2,1 UV-I 11,0 C 29,4 C 9,0 km/h (2 Bft)
03.04.2011 14:45 23,0 C 14,7 C 28,7 C 28,7 C 28,7 C 5,7 C 48 % 38 % 100 % 1009,7 hPa 0,0 l/m 7,1 km/h (2 Bft) S-SW 202 5 min 2,0 UV-I 11,4 C 28,7 C 8,5 km/h (2 Bft)
03.04.2011 14:50 23,2 C 14,8 C 29,1 C 28,4 C 28,4 C 5,2 C 46 % 35 % 100 % 1009,7 hPa 0,0 l/m 6,3 km/h (2 Bft) SO 135 5 min 2,0 UV-I 10,9 C 28,4 C 1,8 km/h (1 Bft)
03.04.2011 14:55 23,3 C 14,7 C 29,5 C 29,2 C 29,2 C 5,9 C 45 % 35 % 100 % 1009,7 hPa 0,0 l/m 3,5 km/h (1 Bft) W-SW 247 5 min 2,0 UV-I 10,7 C 29,2 C 4,3 km/h (1 Bft)
03.04.2011 15:00 23,4 C 14,8 C 29,9 C 29,6 C 29,6 C 6,2 C 45 % 34 % 100 % 1009,7 hPa 0,0 l/m 2,1 km/h (1 Bft) SO 135 5 min 2,0 UV-I 10,8 C 29,6 C 2,9 km/h (1 Bft)
03.04.2011 15:09 23,4 C 14,9 C 30,0 C 29,5 C 29,5 C 6,1 C 45 % 34 % 100 % 1009,7 hPa 0,0 l/m 3,2 km/h (1 Bft) N 0 9 min 1,8 UV-I 10,8 C 29,5 C 5,5 km/h (1 Bft)
03.04.2011 15:15 23,5 C 15,0 C 29,7 C 29,5 C 29,5 C 6,0 C 45 % 33 % 100 % 1009,1 hPa 0,0 l/m 3,7 km/h (1 Bft) NO 45 6 min 1,7 UV-I 10,9 C 29,5 C 3,1 km/h (1 Bft)
03.04.2011 15:20 23,5 C 15,0 C 29,8 C 29,6 C 29,6 C 6,1 C 45 % 36 % 100 % 1009,1 hPa 0,0 l/m 3,2 km/h (1 Bft) SW 225 5 min 1,7 UV-I 10,9 C 29,6 C 4,0 km/h (1 Bft)
03.04.2011 15:25 23,7 C 15,0 C 29,3 C 29,4 C 29,4 C 5,7 C 44 % 34 % 100 % 1009,1 hPa 0,0 l/m 3,9 km/h (1 Bft) S-SO 157 5 min 1,4 UV-I 10,7 C 29,4 C 12,1 km/h (2 Bft)
03.04.2011 15:30 23,7 C 15,1 C 29,0 C 29,1 C 29,1 C 5,4 C 43 % 33 % 100 % 1009,1 hPa 0,0 l/m 3,7 km/h (1 Bft) S-SO 157 5 min 1,4 UV-I 10,4 C 29,1 C 1,8 km/h (1 Bft)
03.04.2011 15:35 23,7 C 15,1 C 28,9 C 28,9 C 28,9 C 5,2 C 43 % 33 % 100 % 1009,1 hPa 0,0 l/m 4,7 km/h (1 Bft) SW 225 5 min 1,3 UV-I 10,4 C 28,9 C 15,3 km/h (3 Bft)
03.04.2011 15:40 23,7 C 15,1 C 28,8 C 28,4 C 28,4 C 4,7 C 42 % 33 % 100 % 1009,1 hPa 0,0 l/m 6,3 km/h (2 Bft) NW 315 5 min 1,3 UV-I 10,0 C 28,4 C 2,6 km/h (1 Bft)
03.04.2011 15:45 24,0 C 15,2 C 29,4 C 28,9 C 28,9 C 4,9 C 41 % 30 % 100 % 1009,1 hPa 0,0 l/m 5,8 km/h (2 Bft) S-SW 202 5 min 1,3 UV-I 9,9 C 28,9 C 13,2 km/h (3 Bft)
03.04.2011 15:50 24,1 C 15,2 C 29,1 C 28,7 C 28,7 C 4,6 C 39 % 32 % 100 % 1009,1 hPa 0,0 l/m 5,8 km/h (2 Bft) SW 225 5 min 1,3 UV-I 9,3 C 28,7 C 7,4 km/h (2 Bft)
03.04.2011 15:55 24,1 C 15,3 C 28,9 C 28,2 C 28,2 C 4,1 C 40 % 33 % 100 % 1009,2 hPa 0,0 l/m 8,4 km/h (2 Bft) SW 225 5 min 1,1 UV-I 9,6 C 28,2 C 3,4 km/h (1 Bft)
03.04.2011 16:00 24,3 C 15,3 C 29,3 C 28,4 C 28,4 C 4,1 C 40 % 32 % 100 % 1009,2 hPa 0,0 l/m 7,1 km/h (2 Bft) S-SW 202 5 min 1,1 UV-I 9,8 C 28,4 C 11,1 km/h (2 Bft)
03.04.2011 16:09 24,3 C 15,4 C 29,1 C 28,5 C 28,5 C 4,2 C 38 % 32 % 100 % 1009,2 hPa 0,0 l/m 6,8 km/h (2 Bft) N 0 9 min 1,1 UV-I 9,1 C 28,5 C 12,6 km/h (3 Bft)
03.04.2011 16:15 24,3 C 15,5 C 28,4 C 28,0 C 28,0 C 3,7 C 39 % 31 % 97 % 1009,0 hPa 0,0 l/m 7,4 km/h (2 Bft) SW 225 6 min 0,9 UV-I 9,4 C 28,0 C 11,3 km/h (2 Bft)
03.04.2011 16:20 24,3 C 15,5 C 28,6 C 27,9 C 27,9 C 3,6 C 38 % 31 % 95 % 1009,0 hPa 0,0 l/m 7,9 km/h (2 Bft) SW 225 5 min 0,9 UV-I 9,1 C 27,9 C 7,4 km/h (2 Bft)
03.04.2011 16:25 24,4 C 15,6 C 28,5 C 28,2 C 28,2 C 3,8 C 36 % 30 % 100 % 1009,0 hPa 0,0 l/m 6,8 km/h (2 Bft) W-SW 247 5 min 0,9 UV-I 8,4 C 28,2 C 2,7 km/h (1 Bft)
03.04.2011 16:30 24,4 C 15,6 C 28,3 C 28,1 C 28,1 C 3,7 C 38 % 32 % 97 % 1009,0 hPa 0,0 l/m 6,8 km/h (2 Bft) N 360 5 min 0,9 UV-I 9,2 C 28,1 C 11,6 km/h (2 Bft)
03.04.2011 16:35 24,5 C 15,6 C 28,0 C 27,8 C 27,8 C 3,3 C 38 % 31 % 87 % 1009,0 hPa 0,0 l/m 8,0 km/h (2 Bft) W-NW 292 5 min 0,7 UV-I 9,2 C 27,8 C 6,4 km/h (2 Bft)
03.04.2011 16:40 24,5 C 15,6 C 27,9 C 27,7 C 27,7 C 3,2 C 37 % 30 % 84 % 1009,0 hPa 0,0 l/m 8,0 km/h (2 Bft) W-SW 247 0 min 0,7 UV-I 8,8 C 27,7 C 9,5 km/h (2 Bft)
03.04.2011 16:45 24,3 C 15,7 C 27,6 C 27,5 C 27,5 C 3,2 C 37 % 33 % 84 % 1009,0 hPa 0,0 l/m 7,9 km/h (2 Bft) SW 225 0 min 0,6 UV-I 8,7 C 27,5 C 6,8 km/h (2 Bft)
03.04.2011 16:50 24,3 C 15,7 C 27,4 C 27,5 C 27,5 C 3,2 C 37 % 31 % 84 % 1009,0 hPa 0,0 l/m 8,2 km/h (2 Bft) SW 225 0 min 0,6 UV-I 8,7 C 27,5 C 9,7 km/h (2 Bft)
03.04.2011 16:55 24,3 C 15,7 C 27,1 C 27,4 C 27,4 C 3,1 C 34 % 30 % 82 % 1009,0 hPa 0,0 l/m 8,4 km/h (2 Bft) SW 225 0 min 0,5 UV-I 7,4 C 27,4 C 16,3 km/h (3 Bft)
03.04.2011 17:00 24,3 C 15,7 C 26,9 C 27,3 C 27,3 C 3,0 C 34 % 30 % 79 % 1009,0 hPa 0,0 l/m 9,0 km/h (2 Bft) SW 225 0 min 0,5 UV-I 7,4 C 27,3 C 9,5 km/h (2 Bft)
03.04.2011 17:09 24,3 C 15,7 C 26,6 C 26,9 C 26,9 C 2,6 C 34 % 30 % 68 % 1009,0 hPa 0,0 l/m 8,5 km/h (2 Bft) N 0 0 min 0,4 UV-I 7,4 C 26,9 C 10,5 km/h (2 Bft)
03.04.2011 17:15 24,3 C 15,7 C 26,5 C 26,9 C 26,9 C 2,6 C 36 % 31 % 68 % 1008,9 hPa 0,0 l/m 7,2 km/h (2 Bft) SW 225 0 min 0,4 UV-I 8,3 C 26,9 C 5,8 km/h (2 Bft)
03.04.2011 17:20 24,3 C 15,7 C 26,7 C 27,1 C 27,1 C 2,8 C 36 % 32 % 74 % 1008,9 hPa 0,0 l/m 6,9 km/h (2 Bft) S-SW 202 0 min 0,4 UV-I 8,3 C 27,1 C 9,2 km/h (2 Bft)
03.04.2011 17:25 24,3 C 15,8 C 26,4 C 27,2 C 27,2 C 2,9 C 37 % 34 % 76 % 1008,9 hPa 0,0 l/m 6,0 km/h (2 Bft) S 180 0 min 0,3 UV-I 8,7 C 27,2 C 6,4 km/h (2 Bft)
03.04.2011 17:30 24,2 C 15,8 C 26,3 C 27,1 C 27,1 C 2,9 C 36 % 32 % 76 % 1008,9 hPa 0,0 l/m 6,1 km/h (2 Bft) W 270 0 min 0,3 UV-I 8,2 C 27,1 C 8,0 km/h (2 Bft)
03.04.2011 17:35 24,4 C 15,8 C 26,2 C 27,0 C 27,0 C 2,6 C 36 % 34 % 68 % 1008,9 hPa 0,0 l/m 6,3 km/h (2 Bft) S 180 0 min 0,2 UV-I 8,4 C 27,0 C 7,6 km/h (2 Bft)
03.04.2011 17:40 24,3 C 15,8 C 26,0 C 26,8 C 26,8 C 2,5 C 36 % 32 % 66 % 1008,9 hPa 0,0 l/m 7,2 km/h (2 Bft) SW 225 0 min 0,2 UV-I 8,3 C 26,8 C 8,9 km/h (2 Bft)
03.04.2011 17:45 24,1 C 15,8 C 25,8 C 26,4 C 26,4 C 2,3 C 36 % 33 % 61 % 1008,9 hPa 0,0 l/m 6,9 km/h (2 Bft) S-SW 202 0 min 0,2 UV-I 8,1 C 26,4 C 9,2 km/h (2 Bft)
03.04.2011 17:50 23,9 C 15,8 C 25,4 C 26,0 C 26,0 C 2,1 C 36 % 35 % 55 % 1008,9 hPa 0,0 l/m 6,3 km/h (2 Bft) SW 225 0 min 0,2 UV-I 7,9 C 26,0 C 6,1 km/h (2 Bft)
03.04.2011 17:55 23,9 C 15,8 C 25,3 C 25,9 C 25,9 C 2,0 C 36 % 34 % 53 % 1009,1 hPa 0,0 l/m 6,0 km/h (2 Bft) SW 225 0 min 0,1 UV-I 7,9 C 25,9 C 6,4 km/h (2 Bft)
03.04.2011 18:00 23,9 C 15,8 C 25,3 C 25,8 C 25,8 C 1,9 C 37 % 35 % 50 % 1009,1 hPa 0,0 l/m 5,6 km/h (1 Bft) W-SW 247 0 min 0,1 UV-I 8,3 C 25,8 C 5,0 km/h (1 Bft)
03.04.2011 18:09 23,9 C 15,8 C 25,1 C 25,9 C 25,9 C 2,0 C 37 % 36 % 53 % 1009,1 hPa 0,0 l/m 5,0 km/h (1 Bft) N 0 0 min 0,1 UV-I 8,3 C 25,9 C 6,6 km/h (2 Bft)
03.04.2011 18:15 23,7 C 15,8 C 24,8 C 25,7 C 25,7 C 2,0 C 38 % 36 % 53 % 1008,7 hPa 0,0 l/m 5,1 km/h (1 Bft) S 180 0 min 0,1 UV-I 8,5 C 25,7 C 3,7 km/h (1 Bft)
03.04.2011 18:20 23,5 C 15,8 C 24,5 C 25,1 C 25,1 C 1,6 C 38 % 36 % 42 % 1008,7 hPa 0,0 l/m 5,0 km/h (1 Bft) SW 225 0 min 0,1 UV-I 8,4 C 25,1 C 3,9 km/h (1 Bft)
03.04.2011 18:25 23,3 C 15,9 C 24,1 C 24,5 C 24,5 C 1,2 C 39 % 37 % 32 % 1008,7 hPa 0,0 l/m 3,7 km/h (1 Bft) S-SW 202 0 min 0,0 UV-I 8,6 C 24,5 C 4,3 km/h (1 Bft)
03.04.2011 18:30 23,0 C 15,9 C 23,7 C 24,0 C 24,0 C 1,0 C 39 % 39 % 26 % 1008,7 hPa 0,0 l/m 3,2 km/h (1 Bft) S-SW 202 0 min 0,0 UV-I 8,3 C 24,0 C 4,0 km/h (1 Bft)
03.04.2011 18:35 22,8 C 15,9 C 23,3 C 23,4 C 23,4 C 0,6 C 40 % 39 % 16 % 1008,9 hPa 0,0 l/m 2,1 km/h (1 Bft) W-SW 247 0 min 0,0 UV-I 8,5 C 23,4 C 0,0 km/h (0 Bft)
03.04.2011 18:40 22,7 C 15,9 C 23,0 C 22,9 C 22,9 C 0,2 C 40 % 40 % 5 % 1008,9 hPa 0,0 l/m 1,1 km/h (1 Bft) S-SO 157 0 min 0,0 UV-I 8,4 C 22,9 C 0,0 km/h (0 Bft)
03.04.2011 18:45 22,5 C 15,9 C 22,4 C 22,5 C 22,4 C 0,0 C 41 % 42 % 0 % 1008,9 hPa 0,0 l/m 0,0 km/h (0 Bft) S-SO 157 0 min 0,0 UV-I 8,6 C 22,4 C 0,0 km/h (0 Bft)
03.04.2011 18:50 22,3 C 15,9 C 22,1 C 22,2 C 22,1 C 0,0 C 42 % 45 % 0 % 1008,9 hPa 0,0 l/m 0,0 km/h (0 Bft) S-SO 157 0 min 0,0 UV-I 8,8 C 22,1 C 0,0 km/h (0 Bft)
03.04.2011 18:55 21,9 C 15,9 C 21,5 C 21,8 C 21,6 C 0,0 C 43 % 45 % 0 % 1008,8 hPa 0,0 l/m 0,0 km/h (0 Bft) O-NO 67 0 min 0,0 UV-I 8,7 C 21,6 C 0,0 km/h (0 Bft)
03.04.2011 19:00 21,7 C 15,9 C 21,2 C 21,6 C 21,5 C 0,0 C 44 % 45 % 0 % 1008,8 hPa 0,0 l/m 0,0 km/h (0 Bft) O-NO 67 0 min 0,0 UV-I 8,9 C 21,5 C 0,0 km/h (0 Bft)
03.04.2011 19:09 21,4 C 15,9 C 21,1 C 21,3 C 21,0 C 0,0 C 44 % 45 % 0 % 1008,8 hPa 0,0 l/m 0,5 km/h (0 Bft) N 0 0 min 0,0 UV-I 8,6 C 21,0 C 0,0 km/h (0 Bft)
03.04.2011 19:15 21,3 C 15,9 C 20,7 C 21,1 C 20,8 C 0,0 C 45 % 48 % 0 % 1008,9 hPa 0,0 l/m 0,3 km/h (0 Bft) O-NO 67 0 min 0,0 UV-I 8,9 C 20,8 C 0,0 km/h (0 Bft)
03.04.2011 19:20 21,1 C 15,9 C 20,3 C 20,9 C 20,5 C 0,0 C 46 % 51 % 0 % 1008,9 hPa 0,0 l/m 0,0 km/h (0 Bft) O-NO 67 0 min 0,0 UV-I 9,0 C 20,5 C 0,0 km/h (0 Bft)
03.04.2011 19:25 20,9 C 15,9 C 20,0 C 20,6 C 20,0 C 0,0 C 46 % 49 % 0 % 1008,9 hPa 0,0 l/m 0,0 km/h (0 Bft) NO 45 0 min 0,0 UV-I 8,8 C 20,0 C 0,0 km/h (0 Bft)
03.04.2011 19:30 20,8 C 15,8 C 20,0 C 20,4 C 19,7 C 0,0 C 47 % 49 % 0 % 1008,9 hPa 0,0 l/m 0,0 km/h (0 Bft) NO 45 0 min 0,0 UV-I 9,1 C 19,7 C 0,0 km/h (0 Bft)
03.04.2011 19:35 20,5 C 15,8 C 19,6 C 20,1 C 19,4 C 0,0 C 48 % 51 % 0 % 1008,9 hPa 0,0 l/m 0,0 km/h (0 Bft) NO 45 0 min 0,0 UV-I 9,1 C 19,4 C 0,0 km/h (0 Bft)
03.04.2011 19:40 20,4 C 15,9 C 19,3 C 19,9 C 19,0 C 0,0 C 49 % 55 % 0 % 1008,9 hPa 0,0 l/m 0,0 km/h (0 Bft) NO 45 0 min 0,0 UV-I 9,3 C 19,0 C 0,0 km/h (0 Bft)
03.04.2011 19:45 20,1 C 15,9 C 18,9 C 19,6 C 18,5 C 0,0 C 51 % 56 % 0 % 1008,9 hPa 0,0 l/m 0,0 km/h (0 Bft) SW 225 0 min 0,0 UV-I 9,6 C 18,5 C 0,0 km/h (0 Bft)
03.04.2011 19:50 19,9 C 15,9 C 18,6 C 19,3 C 18,1 C 0,0 C 52 % 57 % 0 % 1008,9 hPa 0,0 l/m 0,0 km/h (0 Bft) SW 225 0 min 0,0 UV-I 9,7 C 18,1 C 0,0 km/h (0 Bft)
03.04.2011 19:55 19,7 C 15,9 C 18,3 C 19,1 C 17,8 C 0,0 C 53 % 60 % 0 % 1008,9 hPa 0,0 l/m 0,0 km/h (0 Bft) SW 225 0 min 0,0 UV-I 9,8 C 17,8 C 0,0 km/h (0 Bft)
03.04.2011 20:00 19,6 C 15,9 C 18,1 C 18,9 C 17,5 C 0,0 C 53 % 59 % 0 % 1008,9 hPa 0,0 l/m 0,0 km/h (0 Bft) SW 225 0 min 0,0 UV-I 9,8 C 17,5 C 0,0 km/h (0 Bft)
03.04.2011 20:09 19,2 C 15,9 C 17,7 C 18,6 C 17,3 C 0,0 C 54 % 60 % 0 % 1008,9 hPa 0,0 l/m 0,0 km/h (0 Bft) N 0 0 min 0,0 UV-I 9,7 C 17,3 C 0,0 km/h (0 Bft)
03.04.2011 20:15 19,2 C 15,9 C 17,6 C 18,5 C 17,2 C 0,0 C 56 % 62 % 0 % 1009,1 hPa 0,0 l/m 0,0 km/h (0 Bft) NW 315 0 min 0,0 UV-I 10,2 C 17,2 C 0,0 km/h (0 Bft)
03.04.2011 20:20 19,0 C 15,9 C 17,4 C 18,4 C 17,1 C 0,0 C 57 % 64 % 0 % 1009,1 hPa 0,0 l/m 1,0 km/h (0 Bft) SW 225 0 min 0,0 UV-I 10,3 C 17,1 C 3,9 km/h (1 Bft)
03.04.2011 20:25 18,8 C 15,8 C 17,3 C 18,2 C 17,1 C 0,0 C 59 % 65 % 0 % 1009,1 hPa 0,0 l/m 2,1 km/h (1 Bft) W-SW 247 0 min 0,0 UV-I 10,6 C 17,1 C 2,4 km/h (1 Bft)
03.04.2011 20:30 18,7 C 15,8 C 17,2 C 18,1 C 16,8 C 0,0 C 59 % 65 % 0 % 1009,1 hPa 0,0 l/m 1,6 km/h (1 Bft) O-NO 67 0 min 0,0 UV-I 10,5 C 16,8 C 0,0 km/h (0 Bft)
03.04.2011 20:33 18,5 C 15,8 C 17,0 C 17,8 C 16,5 C 0,0 C 59 % 64 % 0 % 1009,2 hPa 0,0 l/m 0,6 km/h (0 Bft) O-NO 67 0 min 0,0 UV-I 10,3 C 16,5 C 0,0 km/h (0 Bft)
03.04.2011 20:38 18,5 C 15,9 C 17,2 C 17,9 C 16,6 C 0,0 C 59 % 65 % 0 % 1009,2 hPa 0,0 l/m 1,1 km/h (1 Bft) S-SO 157 0 min 0,0 UV-I 10,3 C 16,6 C 2,6 km/h (1 Bft)
03.04.2011 20:43 18,5 C 15,9 C 17,3 C 18,0 C 16,9 C 0,0 C 60 % 64 % 0 % 1009,2 hPa 0,0 l/m 1,1 km/h (1 Bft) O 90 0 min 0,0 UV-I 10,6 C 16,9 C 0,0 km/h (0 Bft)
03.04.2011 20:45 18,5 C 15,9 C 17,3 C 18,0 C 16,9 C 0,0 C 60 % 64 % 0 % 1009,2 hPa 0,0 l/m 1,1 km/h (1 Bft) O 90 0 min 0,0 UV-I 10,6 C 16,9 C 0,0 km/h (0 Bft)
03.04.2011 20:50 18,4 C 15,9 C 17,1 C 17,9 C 16,8 C 0,0 C 60 % 65 % 0 % 1009,2 hPa 0,0 l/m 0,6 km/h (0 Bft) O-SO 112 0 min 0,0 UV-I 10,5 C 16,8 C 0,0 km/h (0 Bft)
03.04.2011 20:55 18,3 C 15,9 C 16,9 C 17,8 C 16,8 C 0,0 C 60 % 65 % 0 % 1009,2 hPa 0,0 l/m 1,3 km/h (1 Bft) O-NO 67 0 min 0,0 UV-I 10,4 C 16,8 C 4,0 km/h (1 Bft)
03.04.2011 21:00 18,2 C 15,9 C 16,9 C 17,8 C 16,9 C 0,0 C 60 % 65 % 0 % 1009,2 hPa 0,0 l/m 2,4 km/h (1 Bft) NO 45 0 min 0,0 UV-I 10,3 C 16,9 C 5,1 km/h (1 Bft)
03.04.2011 21:09 18,4 C 15,9 C 17,5 C 18,0 C 17,2 C 0,0 C 60 % 64 % 0 % 1009,2 hPa 0,0 l/m 2,9 km/h (1 Bft) N 0 0 min 0,0 UV-I 10,5 C 17,2 C 4,3 km/h (1 Bft)
03.04.2011 21:10 18,4 C 15,9 C 17,5 C 18,0 C 17,2 C 0,0 C 60 % 64 % 0 % 1009,2 hPa 0,0 l/m 2,9 km/h (1 Bft) NW 315 0 min 0,0 UV-I 10,5 C 17,2 C 4,3 km/h (1 Bft)
03.04.2011 21:15 18,3 C 15,7 C 17,2 C 17,9 C 17,2 C 0,0 C 60 % 64 % 0 % 1009,3 hPa 0,0 l/m 2,3 km/h (1 Bft) N-NO 22 0 min 0,0 UV-I 10,4 C 17,2 C 0,0 km/h (0 Bft)
03.04.2011 21:20 18,1 C 15,7 C 17,2 C 17,8 C 17,1 C 0,0 C 60 % 64 % 0 % 1009,3 hPa 0,0 l/m 1,1 km/h (1 Bft) NO 45 0 min 0,0 UV-I 10,2 C 17,1 C 0,0 km/h (0 Bft)
03.04.2011 21:25 18,1 C 15,7 C 17,1 C 17,7 C 16,9 C 0,0 C 61 % 64 % 0 % 1009,3 hPa 0,0 l/m 0,2 km/h (0 Bft) O-NO 67 0 min 0,0 UV-I 10,5 C 16,9 C 0,0 km/h (0 Bft)
03.04.2011 21:30 17,9 C 15,7 C 16,9 C 17,5 C 16,7 C 0,0 C 61 % 65 % 0 % 1009,3 hPa 0,0 l/m 0,0 km/h (0 Bft) NO 45 0 min 0,0 UV-I 10,3 C 16,7 C 1,8 km/h (1 Bft)
03.04.2011 21:35 17,9 C 15,7 C 16,8 C 17,5 C 16,7 C 0,0 C 61 % 65 % 0 % 1009,2 hPa 0,0 l/m 0,8 km/h (0 Bft) O-NO 67 0 min 0,0 UV-I 10,3 C 16,7 C 0,0 km/h (0 Bft)
03.04.2011 21:40 17,8 C 15,7 C 16,8 C 17,4 C 16,7 C 0,0 C 61 % 65 % 0 % 1009,2 hPa 0,0 l/m 0,8 km/h (0 Bft) O-NO 67 0 min 0,0 UV-I 10,2 C 16,7 C 0,0 km/h (0 Bft)
03.04.2011 21:45 17,7 C 15,7 C 16,7 C 17,4 C 16,7 C 0,0 C 62 % 66 % 0 % 1009,2 hPa 0,0 l/m 0,2 km/h (0 Bft) O-NO 67 0 min 0,0 UV-I 10,3 C 16,7 C 1,9 km/h (1 Bft)
03.04.2011 21:50 17,7 C 15,7 C 16,7 C 17,4 C 16,7 C 0,0 C 62 % 66 % 0 % 1009,2 hPa 0,0 l/m 0,3 km/h (0 Bft) O-NO 67 0 min 0,0 UV-I 10,3 C 16,7 C 0,0 km/h (0 Bft)
03.04.2011 21:55 17,6 C 15,6 C 16,5 C 17,3 C 16,6 C 0,0 C 62 % 66 % 0 % 1009,3 hPa 0,0 l/m 0,3 km/h (0 Bft) NO 45 0 min 0,0 UV-I 10,2 C 16,6 C 0,0 km/h (0 Bft)
03.04.2011 22:00 17,5 C 15,6 C 16,5 C 17,2 C 16,5 C 0,0 C 63 % 68 % 0 % 1009,3 hPa 0,0 l/m 0,0 km/h (0 Bft) NO 45 0 min 0,0 UV-I 10,4 C 16,5 C 0,0 km/h (0 Bft)
03.04.2011 22:09 17,5 C 15,6 C 16,2 C 17,1 C 16,4 C 0,0 C 64 % 68 % 0 % 1009,3 hPa 0,0 l/m 0,0 km/h (0 Bft) N 0 0 min 0,0 UV-I 10,6 C 16,4 C 0,0 km/h (0 Bft)
03.04.2011 22:15 17,2 C 15,6 C 16,0 C 16,9 C 16,3 C 0,0 C 64 % 69 % 0 % 1009,1 hPa 0,0 l/m 0,2 km/h (0 Bft) O-NO 67 0 min 0,0 UV-I 10,3 C 16,3 C 0,0 km/h (0 Bft)
03.04.2011 22:20 17,3 C 15,6 C 16,0 C 16,9 C 16,2 C 0,0 C 64 % 69 % 0 % 1009,1 hPa 0,0 l/m 0,2 km/h (0 Bft) O-NO 67 0 min 0,0 UV-I 10,4 C 16,2 C 0,0 km/h (0 Bft)
03.04.2011 22:25 17,1 C 15,7 C 16,0 C 16,8 C 16,1 C 0,0 C 65 % 69 % 0 % 1009,1 hPa 0,0 l/m 0,0 km/h (0 Bft) SW 225 0 min 0,0 UV-I 10,5 C 16,1 C 0,0 km/h (0 Bft)
03.04.2011 22:30 17,1 C 15,7 C 15,8 C 16,7 C 16,0 C 0,0 C 65 % 71 % 0 % 1009,1 hPa 0,0 l/m 0,3 km/h (0 Bft) W-SW 247 0 min 0,0 UV-I 10,5 C 16,0 C 2,7 km/h (1 Bft)
03.04.2011 22:35 17,0 C 15,7 C 15,7 C 16,6 C 15,7 C 0,0 C 69 % 75 % 0 % 1009,6 hPa 0,0 l/m 3,2 km/h (1 Bft) O 90 0 min 0,0 UV-I 11,3 C 15,7 C 2,4 km/h (1 Bft)
03.04.2011 22:40 16,9 C 15,7 C 15,7 C 16,5 C 15,6 C 0,0 C 69 % 74 % 0 % 1009,6 hPa 0,0 l/m 3,4 km/h (1 Bft) SW 225 0 min 0,0 UV-I 11,2 C 15,6 C 0,0 km/h (0 Bft)
03.04.2011 22:45 16,9 C 15,7 C 15,7 C 16,4 C 15,4 C 0,0 C 70 % 76 % 0 % 1009,6 hPa 0,0 l/m 1,4 km/h (1 Bft) N 360 0 min 0,0 UV-I 11,4 C 15,4 C 0,0 km/h (0 Bft)
03.04.2011 22:50 16,8 C 15,6 C 15,7 C 16,3 C 15,4 C 0,0 C 71 % 76 % 0 % 1009,6 hPa 0,0 l/m 2,3 km/h (1 Bft) W-NW 292 0 min 0,0 UV-I 11,5 C 15,4 C 2,3 km/h (1 Bft)
03.04.2011 22:55 16,8 C 15,6 C 15,7 C 16,4 C 15,5 C 0,0 C 71 % 76 % 0 % 1009,3 hPa 0,0 l/m 3,7 km/h (1 Bft) W-SW 247 0 min 0,0 UV-I 11,5 C 15,5 C 5,1 km/h (1 Bft)
03.04.2011 23:00 16,7 C 15,6 C 15,6 C 16,3 C 15,4 C 0,0 C 71 % 76 % 0 % 1009,3 hPa 0,0 l/m 4,2 km/h (1 Bft) SW 225 0 min 0,0 UV-I 11,4 C 15,4 C 3,9 km/h (1 Bft)
03.04.2011 23:09 16,4 C 15,6 C 15,4 C 16,0 C 15,3 C 0,0 C 73 % 78 % 0 % 1009,3 hPa 0,0 l/m 7,1 km/h (2 Bft) N 0 0 min 0,0 UV-I 11,5 C 15,3 C 8,0 km/h (2 Bft)
03.04.2011 23:15 16,3 C 15,6 C 15,3 C 15,9 C 15,2 C 0,0 C 74 % 78 % 0 % 1009,8 hPa 0,0 l/m 7,6 km/h (2 Bft) SW 225 0 min 0,0 UV-I 11,7 C 15,2 C 6,4 km/h (2 Bft)
03.04.2011 23:20 16,1 C 15,6 C 15,2 C 15,8 C 14,9 C 0,0 C 74 % 79 % 0 % 1009,8 hPa 0,0 l/m 8,4 km/h (2 Bft) W-SW 247 0 min 0,0 UV-I 11,5 C 14,9 C 11,6 km/h (2 Bft)
03.04.2011 23:25 15,9 C 15,6 C 14,8 C 15,5 C 14,4 C 0,0 C 74 % 80 % 0 % 1009,8 hPa 0,0 l/m 8,9 km/h (2 Bft) S 180 0 min 0,0 UV-I 11,3 C 14,4 C 19,2 km/h (3 Bft)
03.04.2011 23:30 15,7 C 15,6 C 14,6 C 15,2 C 14,2 C 0,0 C 75 % 80 % 0 % 1009,8 hPa 0,0 l/m 8,0 km/h (2 Bft) S-SW 202 0 min 0,0 UV-I 11,3 C 14,2 C 6,4 km/h (2 Bft)
03.04.2011 23:35 15,5 C 15,6 C 14,4 C 15,0 C 14,0 C 0,0 C 75 % 80 % 0 % 1009,5 hPa 0,0 l/m 5,1 km/h (1 Bft) N-NO 22 0 min 0,0 UV-I 11,1 C 14,0 C 3,1 km/h (1 Bft)
03.04.2011 23:40 15,4 C 15,7 C 14,3 C 14,9 C 13,8 C 0,0 C 75 % 80 % 0 % 1009,5 hPa 0,0 l/m 3,5 km/h (1 Bft) NO 45 0 min 0,0 UV-I 11,0 C 13,8 C 1,9 km/h (1 Bft)
03.04.2011 23:45 15,3 C 15,7 C 14,1 C 14,7 C 13,5 C 0,0 C 76 % 81 % 0 % 1009,5 hPa 0,0 l/m 2,7 km/h (1 Bft) O-NO 67 0 min 0,0 UV-I 11,1 C 13,5 C 3,4 km/h (1 Bft)
03.04.2011 23:50 15,1 C 15,7 C 14,1 C 14,5 C 13,3 C 0,0 C 76 % 81 % 0 % 1009,5 hPa 0,0 l/m 3,4 km/h (1 Bft) N-NO 22 0 min 0,0 UV-I 10,9 C 13,3 C 9,8 km/h (2 Bft)
03.04.2011 23:55 14,9 C 15,7 C 13,9 C 14,3 C 13,1 C 0,0 C 77 % 81 % 0 % 1009,3 hPa 0,0 l/m 2,6 km/h (1 Bft) O-NO 67 0 min 0,0 UV-I 10,9 C 13,1 C 2,9 km/h (1 Bft)
_ Min-Zeit 06:40 09:10 07:20 06:40 06:30 00:00 16:55 15:45 00:00 18:15 - 00:55 - - - 00:00 06:35 06:30 00:00
Minimum _ 9,1 C 12,8 C 7,4 C 8,3 C 6,6 C 0,0 C 34 % 30 % 0 % 1008,7 hPa - 0,0 km/h (0 Bft) - - - 0,0 UV-I 6,5 C 6,6 C 0,0 km/h (0 Bft)
_ Max-Zeit 16:35 18:25 15:09 14:00 14:00 10:40 06:25 07:09 08:15 00:00 00:00 17:00 - - 09:10 13:45 13:35 14:00 23:25
Maximum _ 24,5 C 15,9 C 30,0 C 29,8 C 29,8 C 7,2 C 84 % 89 % 100 % 1013,9 hPa 0,0 l/m 9,0 km/h
SW (2 Bft)
- - 10 min 2,5 UV-I 11,7 C 29,8 C 19,2 km/h
S (3 Bft)
Durchschnitt _ 16,9 C 14,5 C 16,8 C 18,7 C 18,0 C 2,0 C 63 % 65 % 41 % 1010,6 hPa #0,0 l/m 2,0 km/h (1 Bft) SW - #8:40 h 1,1 UV-I 9,4 C 18,0 C 2,7 km/h (1 Bft)
2013 www.wetterstation-wechselburg.de